User: anonymous   Login
Location: Summit Observatory
(39.5293°N, 75.7290°W)
Time: 10:22:38
(UTC-04:00)
Language:

Gurwin Techsat 1B - Orbit

View from above orbital plane
View from above orbital plane
View from above satellite
View from above satellite

Ground track
Ground track

The orbit data is extracted from the following two-line orbital elements,

1 25397U 98043D   15086.85103294  .00000132  00000-0  76503-4 0  9993
2 25397 098.5111 039.8814 0001282 148.8755 264.1972 14.23528472868222
Epoch (UTC): 27 March 2015 20:25:29
Eccentricity: 0.0001282
inclination: 98.5111°
perigee height: 812 km
apogee height: 814 km
right ascension of ascending node: 39.8814°
argument of perigee: 148.8755°
revolutions per day: 14.23528472
mean anomaly at epoch: 264.1972°
orbit number at epoch: 86822

The dashed part of the orbit path shows where the satellite is in the earth's shadow,  

DLR